Location: Vale
(35.4830°N, 81.3830°W)
Time: 15:49:40
(UTC-04:00)

SR - All Passes

Search period start: 27 May 2015 00:00
Search period end: 06 June 2015 00:00
Orbit: 584 x 876 km, 66.7° (Epoch: 27 May)

Date Brightness Start Highest point End Pass type
(mag) Time Alt. Az. Time Alt. Az. Time Alt. Az.
27 May - 09:43:30 10° S 09:47:50 54° ESE 09:52:01 10° NE daylight
27 May - 11:28:03 10° W 11:30:16 13° NW 11:32:17 10° NNW daylight
27 May - 18:27:13 10° N 18:30:36 20° NE 18:34:18 10° ESE daylight
27 May - 20:08:26 10° NW 20:12:51 41° WSW 20:17:35 10° S daylight
28 May - 08:55:38 10° SSE 08:59:03 22° ESE 09:02:28 10° ENE daylight
28 May - 10:37:14 10° WSW 10:41:01 27° NW 10:44:41 10° N daylight
28 May - 17:41:10 10° NE 17:41:16 10° NE 17:41:38 10° NE daylight
28 May - 19:19:20 10° NNW 19:24:00 89° ENE 19:29:04 10° SSE daylight
29 May - 09:47:36 10° SW 09:52:00 63° WNW 09:56:14 10° NNE daylight
29 May - 18:30:40 10° NNW 18:35:02 40° ENE 18:39:47 10° SE daylight
29 May - 20:13:30 10° WNW 20:16:58 19° WSW 20:20:27 10° SSW daylight
30 May - 08:58:49 10° S 09:03:08 52° ESE 09:07:17 10° NE daylight
30 May - 10:43:17 10° W 10:45:33 14° NW 10:47:38 10° NNW daylight
30 May - 17:42:32 10° N 17:45:54 20° NE 17:49:36 10° ESE daylight
30 May - 19:23:42 10° NW 19:28:10 42° WSW 19:32:57 10° S daylight
31 May - 08:11:00 10° SSE 08:14:21 22° ESE 08:17:43 10° ENE daylight
31 May - 09:52:30 10° WSW 09:56:18 28° NW 09:59:59 10° N daylight
31 May - 18:34:36 10° NNW 18:39:18 87° ENE 18:44:24 10° SSE daylight
01 Jun - 09:02:54 10° SW 09:07:17 65° WNW 09:11:31 10° NNE daylight
01 Jun - 17:45:58 10° N 17:50:21 40° ENE 17:55:05 10° SE daylight
01 Jun - 19:28:44 10° WNW 19:32:17 20° WSW 19:35:51 10° SSW daylight
02 Jun - 08:14:08 10° S 08:18:25 51° ESE 08:22:33 10° NE daylight
02 Jun - 09:58:30 10° W 10:00:49 14° NW 10:02:58 10° NNW daylight
02 Jun - 16:57:50 10° N 17:01:12 20° NE 17:04:53 10° E daylight
02 Jun - 18:38:57 10° NW 18:43:28 43° WSW 18:48:18 10° S daylight
03 Jun - 07:26:21 10° SSE 07:29:38 21° ESE 07:32:57 10° ENE daylight
03 Jun - 09:07:46 10° WSW 09:11:34 29° WNW 09:15:17 10° N daylight
03 Jun - 17:49:52 10° NNW 17:54:35 85° ENE 17:59:44 10° SSE daylight
04 Jun - 08:18:11 10° SW 08:22:33 67° WNW 08:26:48 10° NNE daylight
04 Jun - 17:01:14 10° N 17:05:38 39° ENE 17:10:24 10° SE daylight
04 Jun - 18:43:57 10° WNW 18:47:34 21° WSW 18:51:15 10° SSW daylight
05 Jun - 07:29:27 10° S 07:33:41 49° ESE 07:37:50 10° NE daylight
05 Jun - 09:13:42 10° W 09:16:05 14° NW 09:18:17 10° NNW daylight
05 Jun - 16:13:06 10° N 16:16:28 20° NE 16:20:09 10° E daylight
05 Jun - 17:54:13 10° NW 17:58:45 44° WSW 18:03:39 10° S daylight
